Location: ????????
(60.4333°N, 46.4710°E)
Time: 03:52:29
(UTC+00:00)

Cosmos 2341 Rocket - Pass Details

Date: 25 November 2020
Orbit: 969 x 1003 km, 82.9° (Epoch: 19 January)

Event Time Altitude Azimuth Distance (km) Brightness Sun altitude
Rises 14:19:53 0° 345° (NNW) 3,689 7.0 -15.5°
Reaches altitude 10° 14:22:23 10° 346° (NNW) 2,741 6.3 -15.8°
Maximum altitude 14:28:42 89° 74° (ENE) 993 4.0 -16.6°
Drops below altitude 10° 14:35:01 10° 168° (SSE) 2,748 6.4 -17.3°
Sets 14:37:33 0° 169° (S) 3,698 7.0 -17.6°
